Location: Newark
(25.0000°N, 73.5000°E)
Time: 03:57:53
(UTC+00:00)

AO-85 - Visible Passes

Search period start: 28 February 2020 00:00
Search period end: 09 March 2020 00:00
Orbit: 520 x 763 km, 64.8° (Epoch: 19 February)

Date Brightness Start Highest point End Pass type
(mag) Time Alt. Az. Time Alt. Az. Time Alt. Az.
03 Mar ? 00:46:10 10° NNE 00:48:49 17° ENE 00:51:31 10° E visible
03 Mar ? 14:50:28 10° S 14:52:20 22° S 14:52:20 22° S visible
04 Mar ? 15:14:55 10° SW 15:18:03 37° WSW 15:18:03 37° WSW visible
05 Mar ? 13:59:48 10° S 14:03:51 28° ESE 14:06:08 18° ENE visible
05 Mar ? 15:40:49 10° WSW 15:43:52 19° WNW 15:43:52 19° WNW visible
06 Mar ? 00:18:39 10° N 00:22:10 30° ENE 00:25:48 10° SE visible
06 Mar ? 14:23:34 10° SSW 14:28:18 87° ESE 14:31:56 15° NNE visible
07 Mar ? 00:42:42 10° NNW 00:46:40 78° WSW 00:50:49 10° SSE visible
07 Mar ? 14:48:42 10° SW 14:52:49 31° WNW 14:56:41 10° N visible
07 Mar ? 23:28:07 10° NNE 23:30:52 18° ENE 23:33:41 10° ESE visible
08 Mar ? 13:32:31 10° S 13:37:05 50° ESE 13:41:20 10° NE visible
08 Mar ? 15:16:12 10° WNW 15:17:31 11° WNW 15:18:49 10° NW visible
08 Mar ? 23:51:59 13° NNW 23:55:27 57° ENE 23:59:32 10° SE visible
